RH
23 24 24 24 24 24 24 25 24 24 25 25 24 24 24 24 24 23 21 20 19 18 18 17 17 17 16 16 16 15 15 15 14 13 13 12 12 11 10 9 8 8 6 6 5 5 5 4 5 5 5 5
27 28 28 28 28 28 29 29 29 29 29 29 29 29 29 29 28 26 24 23 22 20 19 19 18 18 17 17 17 16 16 15 14 14 13 13 12 11 11 9 9 8 7 6 6 6 6 5 6 6 6 6
31 32 32 33 33 33 33 33 33 33 33 33 33 33 33 32 30 28 27 25 23 22 21 21 20 19 19 18 17 16 16 15 15 14 13 13 12 11 10 9 9 8 7 7 6 6 6 6 7 7 8 10
35 35 35 35 34 34 33 33 33 33 34 34 34 34 33 31 30 28 27 26 25 24 23 22 21 20 19 18 17 16 16 15 14 13 13 12 11 10 9 9 8 8 7 7 7 7 7 7 8 10 11 14
36 35 34 33 32 31 30 30 30 32 33 34 34 32 31 30 29 28 27 26 25 24 23 22 20 19 18 17 16 15 14 14 13 12 11 10 9 9 8 8 8 8 8 7 9 8 8 8 9 13 14 17
34 33 31 31 30 29 28 28 29 30 31 31 30 29 28 28 27 26 25 24 23 21 20 19 18 17 16 15 14 13 12 11 11 10 9 9 8 7 7 7 7 8 8 8 9 9 9 10 10 12 16 20
32 31 30 29 28 28 27 27 28 28 28 28 27 27 26 25 24 23 22 21 20 19 18 17 16 15 14 13 12 11 10 10 9 8 7 7 7 6 6 5 6 6 8 9 10 11 10 11 11 12 17 21
29 29 28 28 27 27 26 26 27 28 27 27 26 25 25 23 23 22 21 20 18 17 16 15 14 13 12 11 11 10 9 8 8 7 6 6 6 5 5 4 5 6 7 9 11 13 12 12 12 13 16 20
27 27 27 28 28 27 27 27 28 28 28 28 27 26 24 23 22 20 18 17 15 14 12 11 10 9 9 8 8 7 7 7 6 6 6 5 5 5 5 4 4 5 6 7 11 14 15 14 13 13 16 21
26 27 27 28 29 29 29 30 30 30 29 28 27 25 23 21 19 18 17 16 14 12 10 8 7 6 5 5 5 4 4 5 4 4 4 4 4 4 4 4 4 4 5 6 9 13 17 19 16 16 16 21
26 27 28 29 30 31 32 32 32 31 30 28 26 24 24 24 24 23 21 19 17 13 10 8 6 5 4 3 3 3 3 3 3 3 3 3 3 3 3 3 4 4 4 5 8 11 17 21 22 21 19 21
27 29 29 31 32 33 34 33 33 31 29 28 28 29 32 33 31 28 25 22 19 17 14 11 7 5 4 4 3 3 3 2 3 2 2 3 2 3 3 3 3 3 4 5 7 11 15 21 25 26 26 23
28 30 31 33 35 35 35 34 33 32 33 35 36 38 40 40 37 34 31 28 26 23 20 15 9 7 5 4 4 4 4 3 3 3 2 3 2 3 3 3 3 3 4 5 6 8 12 17 23 27 31 31
28 31 32 35 37 36 36 37 38 40 43 45 45 46 46 45 43 41 40 38 36 34 29 23 16 11 8 6 6 5 5 5 4 4 4 3 3 3 3 3 3 3 4 5 5 7 9 13 18 24 30 35
30 33 35 38 38 38 39 41 44 48 49 50 50 51 54 53 50 47 46 46 45 44 40 36 30 21 15 11 9 7 6 6 5 5 5 5 5 4 4 3 3 3 3 4 4 5 7 9 12 18 23 29
32 35 37 38 37 37 39 41 46 50 50 50 51 54 58 59 59 56 54 53 53 52 50 48 44 38 29 21 16 12 10 8 7 6 6 6 6 5 5 5 4 4 3 3 3 4 5 6 7 10 14 18
34 36 36 37 37 37 39 44 49 51 51 51 53 56 56 56 61 63 61 60 59 57 56 54 52 48 43 38 30 23 17 14 10 8 7 6 6 6 6 6 5 5 4 4 4 3 3 4 4 5 6 8
34 35 37 38 39 41 44 48 51 52 54 57 60 60 56 55 59 62 62 62 61 59 57 56 54 51 48 46 43 38 30 23 17 13 10 8 7 7 7 7 7 6 6 5 4 4 4 3 3 4 3 4
35 37 40 41 42 44 47 50 51 55 61 66 68 66 61 58 58 60 62 63 63 60 58 56 54 51 48 47 46 45 43 36 27 20 15 11 8 7 7 7 7 7 7 6 6 5 5 5 4 4 4 4
39 43 44 44 45 46 48 51 56 64 71 72 71 69 65 60 60 63 64 65 64 62 59 56 53 51 48 46 44 44 45 45 40 30 20 15 11 8 8 8 7 8 8 7 7 7 6 6 5 5 4 4
47 49 49 47 47 48 51 56 65 72 75 74 72 69 65 62 63 65 65 65 64 61 58 55 52 49 46 43 42 41 42 44 45 41 30 20 14 10 8 8 8 8 8 8 8 8 7 7 6 5 5 5
56 56 55 54 52 54 58 64 71 73 72 73 71 69 66 65 64 64 64 64 61 59 56 53 50 46 44 41 39 38 39 40 43 43 36 25 17 12 9 8 9 9 9 9 9 9 9 8 7 6 6 6
61 63 62 60 59 60 63 68 71 69 69 69 69 70 69 66 64 62 61 60 59 58 55 53 50 47 44 42 40 37 36 37 38 40 35 26 18 13 10 9 9 9 9 10 10 10 10 9 8 8 7 6
59 65 67 66 65 65 68 69 68 66 67 67 66 71 71 66 64 62 61 60 59 60 58 55 52 49 46 44 42 38 35 34 34 36 35 28 20 14 12 10 10 10 10 11 11 11 10 10 10 8 8 8
51 61 66 67 64 63 67 68 65 64 66 67 67 69 69 65 64 63 62 61 61 62 61 58 55 51 49 46 43 40 37 33 31 32 34 30 23 17 13 12 11 11 11 11 12 12 11 11 11 10 9 8
43 54 63 67 61 58 62 65 64 64 65 68 67 66 67 64 62 63 63 63 62 63 63 61 58 54 51 49 46 43 39 35 32 30 30 27 22 17 15 13 13 13 12 13 13 13 13 12 11 11 10 10
35 45 57 67 68 64 64 65 64 63 64 67 66 64 66 63 62 63 64 64 63 65 65 64 62 58 55 52 49 45 41 37 33 31 28 25 21 17 15 15 14 14 14 13 14 14 13 14 13 13 11 10
32 38 46 58 67 69 69 67 65 63 62 65 65 64 64 62 62 63 63 64 64 65 66 66 65 62 60 56 51 47 43 38 34 32 30 26 22 19 17 17 16 16 16 15 15 15 14 14 14 14 13 12
33 36 40 49 60 69 72 72 69 65 62 63 65 63 62 62 62 63 63 65 65 66 67 68 68 66 64 60 55 49 45 39 34 33 31 27 23 20 18 18 17 17 17 17 16 16 16 15 15 14 14 14
35 37 40 44 53 64 72 75 74 69 63 62 63 61 59 61 61 61 63 65 66 67 69 70 70 69 68 64 59 53 47 40 35 33 31 28 24 21 19 18 18 18 17 17 17 17 17 17 16 16 15 14
36 38 41 44 49 57 66 73 76 74 69 64 63 61 59 60 60 59 62 64 66 68 69 71 71 70 69 67 63 56 50 43 37 33 31 28 25 23 21 19 18 18 18 18 17 17 18 18 18 17 17 16
Wind_Speed
33 34 35 36 36 37 38 39 39 40 40 40 41 41 41 41 41 41 41 41 41 41 41 41 41 40 40 41 41 42 42 41 40 41 41 41 41 41 41 41 42 41 41 39 38 38 38 38 37 37 37 37
35 35 36 37 37 38 39 39 40 40 41 41 41 41 41 41 41 40 40 40 41 41 41 41 41 41 41 41 42 42 43 42 41 42 42 41 41 41 41 41 41 41 40 39 38 38 37 37 36 36 36 36
36 37 37 38 38 38 39 39 40 40 40 40 40 40 40 40 40 39 40 40 40 39 39 40 40 40 40 40 41 41 42 43 42 42 42 42 41 41 40 40 41 40 39 38 37 37 36 36 36 35 35 34
37 38 38 39 39 39 40 40 40 40 41 41 41 41 40 40 40 40 40 40 40 39 39 39 40 40 40 40 40 40 41 42 41 42 42 41 40 40 40 40 40 39 39 38 36 36 35 35 35 34 33 33
38 38 39 39 40 40 41 41 41 41 40 40 40 40 40 40 40 40 40 40 40 40 39 39 39 39 39 39 39 39 39 40 40 41 41 40 40 39 39 39 38 38 38 37 36 35 34 34 33 33 33 33
36 37 38 38 39 39 40 40 40 39 39 39 39 39 39 39 38 38 38 38 38 39 39 39 39 39 39 39 39 38 38 38 39 39 40 40 39 39 38 38 37 36 36 36 35 33 33 33 32 32 31 33
35 36 36 37 37 38 38 38 38 38 38 38 38 37 37 37 36 36 36 36 36 37 37 38 38 38 39 39 38 38 37 37 37 37 38 39 38 38 38 37 36 35 34 34 34 33 32 32 32 31 30 33
34 35 35 35 36 36 36 36 36 36 36 35 35 35 35 34 34 35 35 35 35 35 36 36 36 37 37 38 38 37 37 36 36 36 36 37 37 37 36 36 35 35 34 33 32 32 31 30 31 31 30 32
33 34 34 34 34 34 34 34 34 34 34 33 33 32 33 33 33 33 33 34 34 34 35 35 35 35 36 36 36 36 36 35 35 35 35 35 35 35 35 34 34 34 33 32 31 31 30 29 29 30 30 30
32 33 33 33 33 33 33 32 32 32 31 31 30 30 30 30 31 32 32 33 34 34 35 35 35 34 34 34 34 34 34 34 33 33 34 34 33 33 33 33 33 32 32 31 30 29 29 29 29 28 29 29
32 32 33 32 32 32 31 30 30 29 29 28 28 28 28 29 30 31 32 33 34 34 34 34 35 34 34 34 34 33 33 33 32 32 32 32 32 32 32 32 32 31 31 30 30 29 28 28 28 28 28 28
32 32 32 31 31 30 29 28 27 27 26 26 26 27 28 30 31 31 32 33 33 33 34 34 34 34 34 34 33 33 32 31 31 30 30 30 30 29 30 30 30 30 30 29 28 28 27 27 27 27 27 28
31 30 30 30 28 27 26 25 24 24 24 25 26 27 28 29 29 30 30 31 32 32 32 33 33 33 33 33 33 32 32 31 29 29 28 28 28 27 27 27 27 28 28 28 27 27 27 27 27 27 26 27
29 29 29 28 27 25 24 23 23 23 24 26 27 29 29 29 29 29 30 30 31 31 32 32 32 32 32 32 32 32 31 31 30 29 28 27 26 26 25 25 24 25 25 25 26 26 26 26 26 26 26 26
28 28 27 27 26 25 24 24 24 25 27 28 30 30 30 31 31 31 31 31 32 33 33 33 33 32 31 31 31 31 31 31 30 30 29 27 26 25 25 24 23 22 22 22 23 23 24 25 25 25 25 25
26 26 26 26 26 25 25 25 26 27 28 30 31 31 31 32 32 32 32 33 34 34 35 35 34 33 32 31 31 31 31 30 30 30 29 29 28 26 25 25 24 22 22 21 20 20 21 22 22 23 24 24
24 24 24 25 25 25 25 25 26 27 29 30 31 31 32 32 33 33 33 34 35 35 35 36 35 34 33 32 31 31 31 31 30 30 29 29 28 27 26 26 25 24 22 21 21 20 19 19 19 20 21 21
23 23 23 23 23 24 24 25 27 28 30 31 32 32 33 33 34 34 34 35 35 35 36 35 34 33 33 33 32 32 31 31 30 30 29 28 27 27 26 25 24 24 23 22 21 20 20 19 19 18 18 18
23 23 23 23 23 24 25 26 28 29 30 31 32 33 34 34 35 35 35 35 35 35 34 33 33 33 33 34 34 34 33 32 31 31 30 29 28 27 26 25 24 24 23 23 22 21 20 20 19 18 18 18
23 23 23 23 23 24 25 27 28 29 31 32 33 34 34 35 35 35 35 34 34 33 32 33 33 34 34 35 35 35 34 33 32 31 31 29 28 27 26 25 24 24 23 23 22 22 21 21 20 19 18 18
23 22 22 23 24 25 26 27 28 30 31 32 33 34 35 35 35 34 33 33 32 32 32 33 34 35 35 36 36 35 34 34 33 31 31 30 29 28 27 26 25 24 23 23 22 22 22 22 21 20 20 19
22 23 23 23 24 25 26 27 28 30 32 33 34 34 34 34 34 34 32 31 32 32 33 33 34 35 35 35 35 34 34 34 34 32 31 31 29 28 27 26 25 24 23 23 23 22 22 22 21 21 20 20
23 23 24 24 25 26 27 28 29 31 33 34 35 34 34 34 33 33 32 32 32 32 32 33 34 34 34 33 34 34 34 34 34 33 31 30 29 28 26 25 24 24 23 23 23 23 23 22 22 21 21 20
24 24 25 25 26 27 28 30 31 32 34 35 35 35 34 34 33 32 32 32 32 32 32 33 33 33 33 33 34 34 34 33 33 33 32 29 28 28 27 25 23 23 23 23 23 23 23 23 23 22 21 21
25 26 26 27 28 28 29 30 31 32 34 35 35 35 34 34 33 33 33 32 32 32 32 32 32 32 33 34 34 35 35 34 33 33 32 31 28 28 27 26 24 23 23 23 23 23 23 23 23 23 22 22
27 27 27 28 29 30 29 30 31 32 33 34 35 35 34 34 33 33 33 33 32 31 31 31 31 32 32 34 34 35 36 36 35 33 32 31 29 27 27 26 25 24 23 23 22 22 22 23 23 23 23 23
27 28 27 28 29 30 29 29 30 30 32 34 35 35 34 34 33 33 33 32 32 31 31 31 31 32 32 33 33 34 35 36 35 33 31 30 29 27 26 25 25 24 24 23 23 22 22 22 23 23 23 23
27 27 28 28 29 29 29 29 29 30 31 33 34 34 34 33 33 33 33 33 32 31 31 31 32 32 33 33 33 33 34 35 35 32 30 29 28 27 26 25 24 24 24 24 23 23 23 22 22 23 23 23
26 26 26 27 28 28 29 30 30 30 30 31 33 33 33 32 31 32 33 33 33 32 32 33 32 32 32 32 33 34 35 35 35 33 30 29 28 27 26 25 24 24 23 23 23 23 23 23 23 23 23 23
26 26 26 26 27 28 28 29 29 30 29 30 31 31 31 31 31 32 33 34 35 35 34 34 34 33 32 32 33 34 35 35 35 33 31 29 28 27 26 25 24 24 23 23 23 23 23 23 23 23 23 23
25 25 26 25 26 27 27 28 28 29 29 29 29 30 30 30 31 32 33 35 36 36 36 36 35 33 32 32 32 34 35 36 35 33 31 29 28 27 26 25 25 24 24 23 23 22 22 23 23 23 23 23
Wind_Direction
313 313 312 312 312 312 312 312 312 312 313 312 312 312 312 311 311 310 309 308 307 306 305 304 304 303 302 300 299 298 297 296 295 294 292 292 291 291 291 290 290 290 290 290 290 289 287 285 284 284 282 281
313 313 313 313 312 312 312 312 312 312 312 312 312 312 312 311 311 310 309 308 307 306 306 305 304 304 303 301 300 299 298 298 297 295 293 292 292 291 290 289 289 289 290 290 290 289 288 286 285 284 283 282
314 314 314 314 314 314 314 314 314 314 314 314 314 314 314 314 313 313 312 311 310 309 308 306 305 304 303 302 301 300 299 298 298 296 295 294 294 292 291 290 289 289 289 289 289 289 288 287 285 285 285 283
317 317 317 318 318 319 319 319 319 318 319 319 319 319 318 318 317 316 316 314 313 312 310 309 307 306 305 303 302 301 300 299 299 298 297 296 295 294 293 292 291 290 290 289 289 288 287 286 285 285 284 284
320 321 321 322 323 323 323 323 323 322 322 322 322 321 320 320 319 318 317 316 316 314 313 311 310 309 307 306 305 304 302 301 301 300 299 298 297 296 295 294 292 292 291 289 289 288 287 286 283 282 283 283
322 323 323 324 325 325 325 325 325 324 324 324 323 323 322 321 320 320 319 319 318 317 316 314 313 312 311 310 309 308 306 305 303 302 300 299 299 299 298 296 295 294 291 289 289 288 287 286 282 280 280 279
324 324 325 326 326 326 326 326 325 325 324 324 324 324 324 324 323 323 323 322 321 320 319 318 317 316 314 313 312 311 309 308 306 304 303 302 301 301 300 299 298 296 293 291 289 287 286 285 283 280 277 275
325 326 326 326 326 326 326 325 325 325 325 326 326 327 326 326 326 326 326 326 325 325 324 322 321 319 317 316 314 313 311 309 307 306 304 303 302 301 300 300 299 297 295 294 291 288 287 284 283 281 277 275
326 326 326 326 326 327 326 326 326 326 327 328 329 329 329 329 330 330 330 330 330 329 328 327 326 324 322 320 318 315 313 311 309 307 305 304 303 301 300 299 298 297 296 295 292 290 288 285 282 281 279 276
326 327 326 327 327 327 327 327 328 329 330 331 332 332 333 334 335 335 335 335 334 334 334 332 331 330 328 325 323 321 318 315 312 310 307 305 304 302 301 299 298 296 295 294 293 291 288 286 284 281 279 277
329 328 328 329 329 329 329 330 331 332 333 333 335 336 337 338 338 338 338 337 337 336 336 336 336 335 334 332 330 328 325 323 320 316 313 310 308 306 304 302 300 298 296 294 293 291 288 286 284 282 280 277
330 329 329 330 330 331 331 333 334 334 334 335 337 337 338 339 339 339 338 338 337 337 337 338 338 338 338 337 336 334 333 331 329 326 323 319 316 313 310 307 304 301 299 296 294 292 290 286 284 282 281 279
330 330 331 332 333 334 335 336 337 337 338 338 339 339 339 339 338 338 338 337 337 337 338 339 339 340 340 339 339 338 337 337 336 334 332 330 328 324 320 315 310 306 303 300 297 294 292 289 286 283 281 281
331 332 333 335 336 338 340 340 341 341 342 342 342 342 341 341 340 339 339 338 338 338 338 338 338 339 340 340 340 339 338 338 338 338 338 337 337 335 331 327 321 315 310 305 301 298 294 292 289 286 283 281
333 334 336 337 338 340 341 341 342 342 342 342 342 342 342 342 340 340 341 341 341 341 339 337 336 335 336 338 339 339 338 338 337 336 337 338 339 339 338 336 333 329 324 317 311 305 300 296 292 290 287 284
335 336 337 337 337 337 338 338 339 339 339 339 340 341 341 340 339 338 339 340 341 340 339 337 335 333 333 333 335 337 338 337 336 335 334 335 336 337 337 337 337 336 335 332 327 320 313 306 301 297 293 290
337 338 337 335 334 333 334 335 336 336 336 337 338 339 340 340 340 339 338 338 339 338 337 336 334 333 333 332 331 332 333 334 335 335 333 332 332 333 334 334 334 335 336 336 334 332 327 323 317 311 305 300
339 338 337 334 333 333 334 335 335 335 335 336 338 338 338 339 340 339 338 337 336 336 336 336 335 334 334 334 332 331 329 329 330 331 331 330 328 328 329 329 330 331 332 332 332 331 330 328 327 323 318 313
339 337 336 334 333 333 333 334 334 335 336 337 337 337 338 338 338 337 336 335 334 335 336 336 336 335 335 334 333 332 330 328 327 327 327 328 326 325 325 325 326 326 327 328 328 328 327 326 325 323 321 320
336 335 333 333 332 332 333 334 334 335 336 337 338 338 338 337 337 336 335 334 334 334 335 336 336 335 334 333 332 330 328 327 326 325 324 324 324 323 322 322 322 323 323 324 325 325 324 323 322 322 321 320
332 331 330 330 330 330 332 333 333 335 336 337 338 338 338 338 337 335 334 334 334 334 334 335 335 335 335 334 332 330 327 326 325 324 323 322 322 322 320 319 319 318 319 320 321 321 321 320 320 320 320 319
329 327 327 328 328 330 331 332 333 335 336 336 336 337 338 338 336 334 334 335 334 334 334 335 335 336 336 336 335 334 330 327 326 325 324 322 320 320 319 317 316 315 315 316 317 318 318 318 317 317 317 316
325 324 324 325 326 328 329 329 332 334 334 333 335 336 337 336 334 333 334 335 335 334 333 334 335 336 336 338 338 338 335 331 327 325 324 322 319 318 316 314 313 311 312 312 314 316 316 316 315 314 314 312
320 320 321 322 323 324 325 326 329 331 332 333 335 335 335 334 334 335 335 335 335 333 332 332 334 335 337 338 339 339 338 334 329 325 322 321 319 317 315 313 310 309 309 310 313 314 315 315 313 313 312 311
316 316 316 317 318 319 321 322 325 327 329 331 334 334 333 334 336 337 337 337 335 333 331 331 333 335 336 338 339 340 340 338 334 328 324 321 320 318 316 315 312 309 308 309 311 313 314 314 313 313 312 311
315 313 312 313 314 316 318 318 321 323 326 328 331 332 333 334 337 339 340 339 336 334 332 332 332 334 335 337 338 340 341 341 337 332 327 324 322 320 317 315 313 311 309 308 309 310 312 313 313 313 313 312
318 314 311 310 311 313 314 315 317 320 322 325 328 330 331 333 336 339 340 339 338 336 334 333 333 333 335 336 338 340 341 342 339 334 328 325 323 321 319 316 314 312 311 310 310 309 310 311 311 312 312 312
324 318 314 311 310 310 311 312 314 317 320 323 325 327 329 332 335 336 337 337 337 336 335 334 334 334 335 336 337 340 341 342 339 335 330 326 324 323 322 320 317 315 314 313 312 311 311 311 310 310 311 311
329 324 318 314 311 309 309 310 313 316 319 321 323 324 326 329 332 333 333 334 335 335 336 335 334 335 335 336 338 340 342 342 340 336 332 329 326 324 323 322 319 316 315 313 313 312 312 312 311 310 310 309
333 330 325 319 314 311 310 310 312 313 316 319 320 321 323 326 327 329 330 331 332 333 335 335 335 335 336 336 338 340 342 343 341 338 334 331 328 326 324 322 320 318 315 314 313 313 313 313 312 311 310 309
336 334 330 325 320 316 313 312 311 312 313 315 317 319 321 322 323 325 326 327 329 331 333 334 334 334 335 336 337 339 342 343 342 339 335 332 329 328 326 324 322 320 318 316 315 314 312 312 311 310 310 309